Weather History for Greenville, NC

Change the Weather History Date:

Sunday, October 28, 2012

  Actual Average Record
Temperature  
Mean Temperature 55 °F -  
Max Temperature 59 °F 71 °F 87 °F (1939)
Min Temperature 51 °F 45 °F 28 °F (1957)
Degree Days  
Heating Degree Days 10    
Growing Degree Days 5 (Base 50)    
Moisture  
Dew Point 52 °F    
Average Humidity 89    
Maximum Humidity 100    
Minimum Humidity 72    
Precipitation  
Precipitation 1.64 in - - ()
Sea Level Pressure  
Sea Level Pressure 29.55 in    
Wind  
Wind Speed 16 mph (North)    
Max Wind Speed 22 mph    
Max Gust Speed 31 mph    
Visibility 9 miles    
Events      
Averages and records for this station are not official NWS values.
T = Trace of Precipitation, MM = Missing Value Source: NWS Daily Summary

Daily Weather History Graph

Daily Weather History Graph

Search for Another Location

Airport:

Trip Planner

Search our weather history database for the weather conditions in past years. The results will help you decide how hot, cold, wet, or windy it might be!

Date:

Astronomy

Oct. 28, 2012 Rise Set
Actual Time 7:28 AM EDT 6:17 PM EDT
Civil Twilight 7:01 AM EDT 6:44 PM EDT
Nautical Twilight 6:31 AM EDT 7:14 PM EDT
Astronomical Twilight 6:02 AM EDT 7:43 PM EDT
Moon 5:34 PM EDT (10/28) 6:20 AM EDT (10/28)
Length of Visible Light 11h 42m
Length of Day
10h 49m
Waxing Gibbous, 99% of the Moon is Illuminated
Oct 28
Waxing Gibbous
Oct 29
Full
Nov 6
Last Quarter
Nov 13
New
Nov 20
First Quarter

Hourly Weather History & Observations

Time (EDT) Temp. Dew Point Humidity Pressure Visibility Wind Dir Wind Speed Gust Speed Precip Events Conditions
12:15 AM 59.0 °F 55.4 °F 88% 29.65 in 10.0 mi NE 16.1 mph 23.0 mph 0.02 in   Overcast
12:35 AM 59.0 °F 55.4 °F 88% 29.64 in 10.0 mi NNE 17.3 mph 26.5 mph 0.03 in   Overcast
12:55 AM 59.0 °F 55.4 °F 88% 29.63 in 10.0 mi NNE 17.3 mph 24.2 mph 0.04 in   Overcast
1:15 AM 59.0 °F 55.4 °F 88% 29.64 in 10.0 mi NNE 13.8 mph 23.0 mph 0.01 in   Overcast
1:55 AM 59.0 °F 55.4 °F 88% 29.63 in 7.0 mi NNE 15.0 mph 27.6 mph 0.10 in   Overcast
2:15 AM 57.2 °F 55.4 °F 94% 29.62 in 7.0 mi NNE 21.9 mph 27.6 mph 0.05 in   Overcast
2:35 AM 57.2 °F 55.4 °F 94% 29.61 in 7.0 mi NNE 20.7 mph 31.1 mph 0.09 in   Overcast
2:55 AM 57.2 °F 55.4 °F 94% 29.61 in 5.0 mi NNE 15.0 mph 20.7 mph 0.17 in   Overcast
3:15 AM 57.2 °F 55.4 °F 94% 29.60 in 7.0 mi NNE 15.0 mph 25.3 mph 0.05 in   Overcast
3:35 AM 57.2 °F 55.4 °F 94% 29.59 in 7.0 mi NNE 17.3 mph 25.3 mph 0.12 in   Overcast
3:55 AM 57.2 °F 55.4 °F 94% 29.59 in 7.0 mi NNE 18.4 mph 25.3 mph 0.19 in   Overcast
4:15 AM 57.2 °F 55.4 °F 94% 29.58 in 10.0 mi NNE 15.0 mph 21.9 mph 0.03 in   Overcast
4:35 AM 57.2 °F 55.4 °F 94% 29.58 in 10.0 mi NNE 16.1 mph 24.2 mph 0.07 in   Overcast
4:55 AM 57.2 °F 55.4 °F 94% 29.57 in 10.0 mi NNE 17.3 mph 21.9 mph 0.10 in   Overcast
5:15 AM 57.2 °F 55.4 °F 94% 29.58 in 7.0 mi NNE 13.8 mph 21.9 mph 0.06 in   Overcast
5:35 AM 57.2 °F 55.4 °F 94% 29.58 in 5.0 mi NNE 13.8 mph 23.0 mph 0.14 in   Overcast
5:55 AM 57.2 °F 55.4 °F 94% 29.58 in 5.0 mi NNE 13.8 mph 28.8 mph 0.22 in   Overcast
6:15 AM 57.2 °F 55.4 °F 94% 29.57 in 5.0 mi NNE 19.6 mph 26.5 mph 0.08 in   Overcast
6:35 AM 55.4 °F 55.4 °F 100% 29.57 in 5.0 mi NNE 20.7 mph 29.9 mph 0.17 in   Overcast
6:55 AM 55.4 °F 53.6 °F 94% 29.57 in 7.0 mi North 13.8 mph 20.7 mph 0.24 in   Overcast
7:15 AM 55.4 °F 53.6 °F 94% - 7.0 mi North 12.7 mph 18.4 mph 0.06 in   Overcast
7:35 AM 55.4 °F 53.6 °F 94% 29.57 in 7.0 mi North 11.5 mph 18.4 mph 0.12 in   Overcast
7:55 AM 53.6 °F 53.6 °F 100% 29.57 in 7.0 mi North 13.8 mph 20.7 mph 0.19 in   Overcast
8:15 AM 53.6 °F 53.6 °F 100% 29.58 in 7.0 mi North 16.1 mph 21.9 mph 0.05 in   Overcast
8:35 AM 53.6 °F 53.6 °F 100% 29.59 in 7.0 mi North 15.0 mph 20.7 mph 0.11 in   Overcast
8:55 AM 53.6 °F 53.6 °F 100% 29.59 in 10.0 mi NNW 10.4 mph - 0.15 in   Overcast
9:15 AM 53.6 °F 53.6 °F 100% 29.58 in 7.0 mi North 12.7 mph 21.9 mph 0.02 in   Overcast
9:35 AM 53.6 °F 53.6 °F 100% 29.58 in 10.0 mi North 11.5 mph 19.6 mph 0.05 in   Overcast
9:55 AM 53.6 °F 53.6 °F 100% 29.58 in 10.0 mi North 9.2 mph 17.3 mph 0.09 in   Overcast
10:15 AM 53.6 °F 53.6 °F 100% 29.57 in 7.0 mi North 13.8 mph 19.6 mph 0.04 in   Overcast
10:55 AM 53.6 °F 53.6 °F 100% 29.56 in 10.0 mi North 13.8 mph 21.9 mph 0.10 in   Overcast
11:15 AM 53.6 °F 53.6 °F 100% 29.55 in 10.0 mi North 17.3 mph 21.9 mph 0.01 in   Overcast
11:35 AM 53.6 °F 51.8 °F 94% 29.54 in 10.0 mi North 16.1 mph 26.5 mph 0.03 in   Overcast
11:55 AM 53.6 °F 51.8 °F 94% 29.55 in 10.0 mi North 17.3 mph 26.5 mph 0.03 in   Overcast
12:15 PM 51.8 °F 51.8 °F 100% 29.54 in 10.0 mi North 18.4 mph 27.6 mph 0.01 in   Overcast
12:35 PM 51.8 °F 50.0 °F 94% 29.54 in 10.0 mi North 17.3 mph 26.5 mph 0.01 in   Overcast
1:15 PM 51.8 °F 50.0 °F 94% 29.53 in 10.0 mi North 16.1 mph 23.0 mph 0.01 in   Overcast
1:35 PM 51.8 °F 50.0 °F 94% 29.53 in 10.0 mi North 15.0 mph 19.6 mph 0.01 in   Overcast
1:55 PM 53.6 °F 50.0 °F 88% 29.51 in 10.0 mi North 19.6 mph 25.3 mph 0.01 in   Overcast
2:15 PM 53.6 °F 50.0 °F 88% 29.51 in 10.0 mi North 20.7 mph 28.8 mph N/A   Overcast
2:35 PM 53.6 °F 50.0 °F 88% 29.51 in 10.0 mi North 17.3 mph 23.0 mph N/A   Overcast
2:55 PM 53.6 °F 50.0 °F 88% 29.51 in 10.0 mi North 19.6 mph 26.5 mph N/A   Overcast
3:15 PM 53.6 °F 50.0 °F 88% 29.51 in 10.0 mi NNW 15.0 mph 20.7 mph N/A   Overcast
3:35 PM 53.6 °F 50.0 °F 88% 29.51 in 7.0 mi North 11.5 mph 21.9 mph N/A   Overcast
3:55 PM 53.6 °F 50.0 °F 88% 29.51 in 5.0 mi NNW 16.1 mph 27.6 mph N/A   Overcast
4:15 PM 53.6 °F 50.0 °F 88% 29.51 in 7.0 mi North 13.8 mph 25.3 mph N/A   Overcast
4:35 PM 53.6 °F 50.0 °F 88% 29.51 in 10.0 mi North 17.3 mph 28.8 mph N/A   Overcast
4:55 PM 53.6 °F 50.0 °F 88% 29.51 in 10.0 mi North 13.8 mph 26.5 mph N/A   Overcast
5:15 PM 53.6 °F 50.0 °F 88% 29.52 in 10.0 mi North 15.0 mph 27.6 mph N/A   Overcast
5:35 PM 53.6 °F 50.0 °F 88% 29.52 in 10.0 mi NNW 13.8 mph 23.0 mph N/A   Overcast
5:55 PM 53.6 °F 50.0 °F 88% 29.52 in 10.0 mi North 15.0 mph 21.9 mph N/A   Overcast
6:15 PM 55.4 °F 50.0 °F 82% 29.52 in 10.0 mi NNW 13.8 mph 23.0 mph N/A   Overcast
6:35 PM 55.4 °F 50.0 °F 82% 29.52 in 10.0 mi NNW 12.7 mph 18.4 mph N/A   Overcast
6:55 PM 55.4 °F 48.2 °F 77% 29.52 in 10.0 mi NNW 13.8 mph 23.0 mph N/A   Overcast
7:15 PM 55.4 °F 48.2 °F 77% 29.53 in 10.0 mi NNW 12.7 mph 21.9 mph N/A   Overcast
7:35 PM 55.4 °F 46.4 °F 72% 29.54 in 10.0 mi NNW 12.7 mph 19.6 mph N/A   Overcast
7:55 PM 55.4 °F 46.4 °F 72% 29.53 in 10.0 mi NNW 17.3 mph 24.2 mph N/A   Overcast
8:15 PM 55.4 °F 46.4 °F 72% 29.52 in 10.0 mi NNW 11.5 mph 25.3 mph N/A   Overcast
8:35 PM 55.4 °F 46.4 °F 72% 29.53 in 10.0 mi NNW 12.7 mph 23.0 mph N/A   Overcast
8:55 PM 55.4 °F 46.4 °F 72% 29.52 in 10.0 mi NNW 10.4 mph 25.3 mph N/A   Overcast
9:35 PM 53.6 °F 46.4 °F 77% 29.53 in 10.0 mi NNW 17.3 mph 25.3 mph N/A   Overcast
9:55 PM 53.6 °F 46.4 °F 77% 29.53 in 10.0 mi NNW 11.5 mph 20.7 mph N/A   Overcast
10:15 PM 53.6 °F 46.4 °F 77% 29.53 in 10.0 mi NNW 16.1 mph 24.2 mph N/A   Overcast
10:35 PM 53.6 °F 46.4 °F 77% 29.53 in 10.0 mi NNW 10.4 mph 21.9 mph N/A   Overcast
10:55 PM 53.6 °F 46.4 °F 77% 29.52 in 10.0 mi NNW 13.8 mph 23.0 mph N/A   Overcast
11:35 PM 53.6 °F 46.4 °F 77% 29.52 in 10.0 mi NNW 13.8 mph 23.0 mph N/A   Overcast
11:55 PM 51.8 °F 48.2 °F 88% 29.51 in 10.0 mi NNW 17.3 mph 23.0 mph N/A   Overcast